Juneau, AK

1:23 PM AKDT on March 27, 2017 (GMT -0800)
Juneau International

Weather History for PAJN - March, 2012

Change the Weather History Date:

Tuesday, March 27, 2012

  Actual Average Record
Temperature  
Mean Temperature 38 °F 36 °F  
Max Temperature 49 °F 42 °F 52 °F (2011)
Min Temperature 26 °F 30 °F 4 °F (1948)
Degree Days  
Heating Degree Days 27 29  
Month to date heating degree days 871 852  
Since 1 July heating degree days 6764 6689  
Cooling Degree Days 0 0  
Month to date cooling degree days 0 0  
Year to date cooling degree days 0 0  
Moisture  
Dew Point 27 °F    
Average Humidity 67    
Maximum Humidity 92    
Minimum Humidity 42    
Precipitation  
Precipitation 0.00 in 0.10 in 0.66 in (1963)
Month to date precipitation 2.82 3.35  
Year to date precipitation 12.35 12.83  
Snow  
Snow 0.00 in 0.20 in 6.80 in (1963)
Month to date snowfall 14.6 10.8  
Since 1 July snowfall 131.5 84.8  
Snow Depth 0.00 in    
Sea Level Pressure  
Sea Level Pressure 29.56 in    
Wind  
Wind Speed 2 mph (WSW)    
Max Wind Speed 12 mph    
Max Gust Speed 17 mph    
Visibility 10 miles    
Events      
T = Trace of Precipitation, MM = Missing Value Source: NWS Daily Summary

Daily Weather History Graph

Daily Weather History Graph

Search for Another Location

Airport or City:

Trip Planner

Search our weather history database for the weather conditions in past years. The results will help you decide how hot, cold, wet, or windy it might be!

Date:

Astronomy

Mar. 27, 2012 Rise Set
Actual Time 6:38 AM AKDT 7:30 PM AKDT
Civil Twilight 5:58 AM AKDT 8:10 PM AKDT
Nautical Twilight 5:09 AM AKDT 8:59 PM AKDT
Astronomical Twilight 4:14 AM AKDT 9:54 PM AKDT
Moon 8:04 AM AKDT 12:53 AM AKDT
Length of Visible Light 14h 12m
Length of Day
12h 51m
Waxing Crescent, 23% of the Moon is Illuminated
Mar 27
Waxing Crescent
Mar 30
First Quarter
Apr 6
Full
Apr 13
Last Quarter
Apr 20
New

Hourly Weather History & Observations

Time (AKDT) Temp. Windchill Dew Point Humidity Pressure Visibility Wind Dir Wind Speed Gust Speed Precip Events Conditions
12:53 AM 28.0 °F - 25.0 °F 88% 29.68 in 10.0 mi Calm Calm - N/A   Mostly Cloudy
1:53 AM 28.0 °F - 24.1 °F 85% 29.67 in 10.0 mi Calm Calm - N/A   Mostly Cloudy
2:53 AM 28.0 °F - 25.0 °F 88% 29.66 in 10.0 mi Calm Calm - N/A   Mostly Cloudy
3:53 AM 28.0 °F - 25.0 °F 88% 29.64 in 10.0 mi Calm Calm - N/A   Partly Cloudy
4:53 AM 26.1 °F - 24.1 °F 92% 29.63 in 10.0 mi Calm Calm - N/A   Partly Cloudy
5:53 AM 26.1 °F - 24.1 °F 92% 29.62 in 10.0 mi Calm Calm - N/A   Scattered Clouds
6:53 AM 26.1 °F - 24.1 °F 92% 29.61 in 10.0 mi Calm Calm - N/A   Overcast
7:53 AM 28.0 °F - 25.0 °F 88% 29.60 in 10.0 mi Calm Calm - N/A   Overcast
8:53 AM 30.0 °F - 26.1 °F 85% 29.59 in 10.0 mi Calm Calm - N/A   Overcast
9:53 AM 34.0 °F - 26.1 °F 73% 29.57 in 10.0 mi Calm Calm - N/A   Overcast
10:53 AM 37.9 °F 34.4 °F 27.0 °F 65% 29.57 in 10.0 mi West 4.6 mph - N/A   Overcast
11:53 AM 39.9 °F 35.1 °F 26.1 °F 58% 29.55 in 10.0 mi WSW 6.9 mph - N/A   Overcast
12:53 PM 43.0 °F 37.7 °F 27.0 °F 53% 29.54 in 10.0 mi WSW 9.2 mph - N/A   Mostly Cloudy
1:53 PM 44.1 °F 39.0 °F 27.0 °F 51% 29.53 in 10.0 mi WSW 9.2 mph - N/A   Mostly Cloudy
2:53 PM 44.1 °F 39.5 °F 26.1 °F 49% 29.52 in 10.0 mi WSW 8.1 mph - N/A   Overcast
3:53 PM 43.0 °F 39.5 °F 24.1 °F 47% 29.52 in 10.0 mi WSW 5.8 mph - N/A   Overcast
4:53 PM 48.0 °F - 27.0 °F 44% 29.50 in 10.0 mi West 3.5 mph - N/A   Mostly Cloudy
5:53 PM 43.0 °F 38.8 °F 28.9 °F 58% 29.50 in 10.0 mi WSW 6.9 mph - N/A   Mostly Cloudy
6:53 PM 41.0 °F - 30.0 °F 65% 29.49 in 10.0 mi Calm Calm - N/A   Overcast
7:53 PM 41.0 °F - 30.0 °F 65% 29.50 in 10.0 mi Calm Calm - N/A   Overcast
8:53 PM 39.0 °F - 30.9 °F 73% 29.49 in 10.0 mi Calm Calm - N/A   Overcast
9:53 PM 36.0 °F - 28.9 °F 76% 29.48 in 10.0 mi Calm Calm - N/A   Overcast
10:53 PM 34.0 °F - 30.0 °F 85% 29.46 in 10.0 mi Calm Calm - N/A   Overcast
11:53 PM 32.0 °F - 28.0 °F 85% 29.44 in 10.0 mi Calm Calm - N/A   Partly Cloudy